Location: Gerlach
(40.6516°N, 119.3568°W)
Time: 05:12:10
(UTC-07:00)

Explorer 11/Cluster Stage 4 - Pass Details

Date: 03 February 2023
Orbit: 466 x 1241 km, 28.8° (Epoch: 02 April)

Event Time Altitude Azimuth Distance (km) Brightness Sun altitude
Exits shadow 05:18:54 12° 222° (SW) 2,937 9.1 -20.5°
Maximum altitude 05:24:55 30° 168° (SSE) 2,040 8.8 -19.3°
Drops below altitude 10° 05:31:43 10° 111° (ESE) 3,175 10.8 -18.0°
Sets 05:34:56 0° 101° (ESE) 4,093 12.0 -17.4°
